Regional Weather Roundup
Issued by NWS

Home | Current Version | Previous Version | Text Only | Print | Product List | Glossary Off
Versions: 1 2 3 4 5 6 7 8 9 10 11 12 13 14 15 16 17 18 19 20 21 22 23 24 25 26 27 28 29 30 31 32 33 34 35 36 37 38 39 40 41 42 43 44 45 46 47 48 49 50

000
ASUS44 KMEG 090610
RWRTN
TENNESSEE HOURLY STATE WEATHER ROUNDUP
NATIONAL WEATHER SERVICE MEMPHIS TN
1200 AM CST FRI DEC 09 2016

TNZ002-004-019-021-049-052-054-088>092-090700-
WEST TENNESSEE

CITY           SKY/WX    TMP DP  RH WIND       PRES   REMARKS
MEMPHIS INTL   PTCLDY    29  16  58 N8        30.58R WCI  21
NWS MEMPHIS      N/A     26 N/A N/A MISG        N/A
JACKSON        CLEAR     27  19  72 N6        30.58R WCI  20
DYERSBURG      CLEAR     25  18  74 N7        30.59S WCI  17
UNION CITY     CLEAR     23  16  74 N8        30.58R WCI  14
PARIS          CLEAR     19  12  73 N3        30.55S
HUNTINGDON     CLEAR     25  16  68 CALM      30.55F
LEXINGTON      CLEAR     25  12  58 N7        30.54R WCI  17
$$

TNZ008-025-027-028-033-062-065-066-090700-
NORTH MIDDLE TENNESSEE

CITY           SKY/WX    TMP DP  RH WIND       PRES   REMARKS
NASHVILLE      CLEAR     26  15  63 NW7       30.53S WCI  18
PORTLAND       MOCLDY    23  18  80 NW3       30.51R
CLARKSVILLE    CLEAR     23  14  68 NW9       30.54S WCI  13
SMYRNA         CLEAR     26  17  68 N14       30.54R WCI  14
GALLATIN       CLEAR     25  18  74 CALM      30.55S
CROSSVILLE     CLEAR     21  14  74 NW8       30.39F WCI  11
$$

TNZ061-075-076-078-094-096-097-090700-
SOUTH MIDDLE TENNESSEE

CITY           SKY/WX    TMP DP  RH WIND       PRES   REMARKS
FAYETTEVILLE   CLEAR     28  16  59 N8        30.47S WCI  20
TULLAHOMA      CLEAR     25  12  58 N8        30.47S WCI  16
WINCHESTER     CLEAR     27  16  63 N3        30.47S
MCMINNVILLE    CLEAR     25  16  68 NW9         N/A  WCI  15
COLUMBIA       CLEAR     27  16  63 CALM      30.50S
SHELBYVILLE    CLEAR     25  18  74 N7        30.51R WCI  17
$$

TNZ017-018-042-046-047-090700-
NORTHEAST TENNESSEE

CITY           SKY/WX    TMP DP  RH WIND       PRES   REMARKS
TRI CITIES     PTCLDY    27  13  55 NW8       30.34S WCI  19
ELIZABETHTON   CLOUDY    28  16  59 W5        30.32F WCI  23
$$

TNZ012-013-036-069-073-074-090700-
CENTRAL EAST TENNESSEE

CITY           SKY/WX    TMP DP  RH WIND       PRES   REMARKS
KNOXVILLE      CLEAR     30  16  56 NW6       30.41R WCI  24
OAK RIDGE      CLEAR     28  15  58 CALM      30.43S
DOWNTOWN KNOXV CLEAR     30  18  59 CALM      30.43S
GATLINBURG     CLEAR     27  14  59 NW8       30.40S WCI  18
MORRISTOWN     PTCLDY    28  14  54 NW5       30.37S WCI  23
JACKSBORO      CLOUDY    27  16  63 CALM      30.43F
$$

TNZ083-085-099-090700-
SOUTHEAST TENNESSEE

CITY           SKY/WX    TMP DP  RH WIND       PRES   REMARKS
CHATTANOOGA    CLEAR     31  14  49 N9        30.46S WCI  23
$$

SKY/WX REPORTED AS FAIR MEANS FEW OR NO CLOUDS BELOW
12 THOUSAND FEET.





USA.gov is the U.S. government's official web portal to all federal, state and local government web resources and services.